Back to catalog

STARLINK-36152

AliveCommunicationsVLEO
NORAD 66968·PAYLOAD·🇺🇸 United States

Launched Dec 8, 2025 from Cape Canaveral Space Force Station

Loading…

Next Passes (next 24 hours)

TLE

FreshSource: CelesTrak SupGP

Epoch: Sep 14, 2026, 21:34 UTC

1 66968C 25288K   26257.89909722  .00048521  00000+0  17570-2 0  2576
2 66968  43.0043  35.1281 0001919 279.2767  16.8226 15.27560989    19

Track STARLINK-36152 in real time with AllMySat

Download on the App Store